Regional Weather Roundup
Issued by NWS Little Rock, AR

Home | Current Version | Previous Version | Text Only | Print | Product List | Glossary On
Versions: 1 2 3 4 5 6 7 8 9 10 11 12 13 14 15 16 17 18 19 20 21 22 23 24 25 26 27 28 29 30 31
000
ASUS44 KLZK 210505
RWRLZK

WEATHER ROUNDUP FOR ARKANSAS
NATIONAL WEATHER SERVICE LITTLE ROCK AR
1100 PM CST MON NOV 20 2017

NOTE: "FAIR" INDICATES FEW OR NO CLOUDS BELOW 12,000 FEET WITH NO
SIGNIFICANT WEATHER AND/OR OBSTRUCTIONS TO VISIBILITY.

ARZ001-003-010-029-210600-
NORTHWEST ARKANSAS

CITY           SKY/WX    TMP DP  RH WIND       PRES   REMARKS
FAYETTEVILLE   CLOUDY    50  32  50 S9        29.93F
FORT SMITH     CLOUDY    43  35  73 CALM      29.98R
HARRISON       CLOUDY    49  30  48 S7        29.93F
BENTONVILLE    CLOUDY    49  31  49 S9        29.94S
ROGERS         CLOUDY    50  31  48 SW14G20   29.93S
SILOAM SPGS    CLOUDY    49  31  49 S15       29.93F
HIGHFILL       CLOUDY    49  31  49 S9        29.93S
$$

ARZ004-005-016-210600-
NORTH CENTRAL ARKANSAS

CITY           SKY/WX    TMP DP  RH WIND       PRES   REMARKS
BATESVILLE     CLOUDY    45  28  51 S9        29.99F
FLIPPIN        CLOUDY    46  29  51 VRB3      29.95F
MTN HOME       CLOUDY    46  29  51 S5        29.94F
$$

ARZ040-041-210600-
WEST CENTRAL ARKANSAS

CITY           SKY/WX    TMP DP  RH WIND       PRES   REMARKS
MENA           CLOUDY    54  32  43 S3        29.99F
MOUNT IDA      CLOUDY    51  31  46 CALM      29.97F
$$

ARZ009-017-025-026-028-210600-
NORTHEAST ARKANSAS

CITY           SKY/WX    TMP DP  RH WIND       PRES   REMARKS
CORNING        MOCLDY    41  30  65 S10       29.99F
JONESBORO      CLEAR     35  30  82 CALM      30.02F
NEWPORT        CLEAR     37  29  72 S10       30.02F
WALNUT RIDGE     N/A     38  30  73 S8        30.00F
BLYTHEVILLE    CLEAR     40  31  70 S9        30.03F
$$

ARZ022-023-033-042-044-210600-
CENTRAL ARKANSAS

CITY           SKY/WX    TMP DP  RH WIND       PRES   REMARKS
LITTLE ROCK    CLOUDY    39  30  70 S5        30.03F
N LITTLE ROCK    N/A     45  31  58 SW7       30.05F
JACKSONVILLE   CLOUDY    44  30  59 S5        30.01F
SEARCY         CLEAR     41  31  67 SW6       30.02F
HOT SPRINGS    CLOUDY    46  32  58 SE3       30.02F
RUSSELLVILLE   CLOUDY    40  32  73 CALM      30.00R
CLINTON        MOCLDY    36  32  87 NW5       30.01R
$$

ARZ036-210600-
EAST ARKANSAS

CITY           SKY/WX    TMP DP  RH WIND       PRES   REMARKS
WEST MEMPHIS   CLEAR     33  29  85 S6        30.05F WCI  28
$$

ARZ050-053-066-070-073-210600-
SOUTHWEST ARKANSAS

CITY           SKY/WX    TMP DP  RH WIND       PRES   REMARKS
ARKADELPHIA    FAIR      31  28  89 CALM      30.05F
CAMDEN         CLEAR     36  30  80 CALM      30.06S
TEXARKANA      CLEAR     47  34  60 S8        30.02F
EL DORADO      CLEAR     36  34  92 CALM      30.06S
DE QUEEN       CLOUDY    36  35  96 CALM      29.99F
$$

ARZ056-057-069-210600-
SOUTHEAST ARKANSAS

CITY           SKY/WX    TMP DP  RH WIND       PRES   REMARKS
PINE BLUFF     CLEAR     39  29  67 CALM      30.06S
STUTTGART      CLEAR     42  31  64 S10       30.05F
MONTICELLO     CLEAR     37  30  75 CALM      30.06F

$$






USA.gov is the U.S. government's official web portal to all federal, state and local government web resources and services.